Regional Weather Roundup
Issued by NWS

Home | Current Version | Previous Version | Graphics & Text | Print | Product List | Glossary On
Versions: 1 2 3 4 5 6 7 8 9 10 11 12 13 14 15 16 17 18 19 20 21 22 23 24 25 26 27 28 29 30 31 32 33 34 35 36 37 38 39 40 41 42 43 44 45 46 47 48 49 50
000
ASUS43 KLOT 230410
RWRIL

ILLINOIS REGIONAL WEATHER ROUNDUP
NATIONAL WEATHER SERVICE CHICAGO/ROMEOVILLE IL
1100 PM CDT TUE APR 22 2014

NOTE: "FAIR" INDICATES FEW OR NO CLOUDS BELOW 12,000 FEET WITH NO
SIGNIFICANT WEATHER AND/OR OBSTRUCTIONS TO VISIBILITY.

* THESE STATIONS ARE NOT UNDER NWS QUALITY CONTROL. THEY ALSO MAY NOT
  REPORT WEATHER SUCH AS PRECIPITATION OR FOG.

ILZ001-002-007-009-015-016-024-230500-
NORTHWEST ILLINOIS

CITY           SKY/WX    TMP DP  RH WIND       PRES   REMARKS
MOLINE         CLEAR     45  29  53 CALM      30.05R
STERLING*      CLEAR     46  30  53 N6        30.06R
SAVANNA*       CLEAR     44  31  59 N6        30.07R
$$

ILZ003-004-008-010-011-017-018-230500-
NORTH CENTRAL ILLINOIS

CITY           SKY/WX    TMP DP  RH WIND       PRES   REMARKS
ROCKFORD       PTCLDY    41  28  60 E6        30.10R
FREEPORT*      CLEAR     41  28  60 E14       30.10R
ROCHELLE*      CLEAR     40  30  68 E7        30.09R
DE KALB*       CLEAR     37  27  68 E6        30.08R WCI  32
PERU*          CLEAR     43  32  65 E15       30.07R
$$

ILZ005-006-012>014-019>023-230500-
NORTHEAST ILLINOIS

CITY           SKY/WX    TMP DP  RH WIND       PRES   REMARKS
CHICAGO-OHARE  CLEAR     41  26  55 NE5       30.07S
CHICAGO-MIDWAY CLEAR     42  28  57 NE6       30.07S
AURORA         CLEAR     40  27  59 E7        30.08R
LANSING*       CLEAR     39  28  62 NE5       30.07S
JOLIET*        CLEAR     40  28  60 NE7       30.08R
WAUKEGAN       CLEAR     31  27  85 CALM      30.07R
DUPAGE AIRPORT CLEAR     38  27  64 NE6       30.07R WCI  33
KANKAKEE*      CLEAR     40  31  70 NE10      30.07R
WHEELING       CLEAR     39  29  67 CALM      30.09R
MORRIS*        CLEAR     40  28  62 NE3       30.07R
ROMEOVILLE*    CLEAR     40  27  59 E9        30.07S
NORTHERLY ISL    N/A     41  30  65 NE6         N/A
$$

LMZ740>746-230500-
SOUTHERN LAKE MICHIGAN

STATION/POSITION SKY/WX   TEMP    WIND        PRES    VSBY  WAVE
                          AIR SEA DIR/SP/G                  HT/PER
                          (F)     (DEG/KT/KT) (MB)    (MI)  (FT/S)
WAUKEGAN HARBOR            40     340/  3/  4 1020.0R
HARRISON CRIB              40      20/  6/  6   N/A
BURNHAM HARBOR             40      20/  5/ 10   N/A
CALUMET HARBOR             40      10/  5/  7 1019.0S
MICHIGAN CITY              39     340/ 10/ 12   N/A
$$

ILZ025>027-034>036-040-047-049-050-058-095>099-230500-
WEST-CENTRAL ILLINOIS

CITY           SKY/WX    TMP DP  RH WIND       PRES   REMARKS
QUINCY         CLEAR     53  29  39 NE5       30.03R
GALESBURG*     CLEAR     45  30  55 NE3       30.04S
MACOMB*        CLEAR     46  32  58 N8        30.06R
JACKSONVILLE*  CLEAR     46  28  50 NW6       30.04R
PITTSFIELD*    CLEAR     52  31  45 N6        30.04S
$$

ILZ028>032-037-038-041>044-048-051>054-059>061-230500-
CENTRAL ILLINOIS

CITY           SKY/WX    TMP DP  RH WIND       PRES   REMARKS
PONTIAC        CLEAR     43  30  61 E13       30.06R
BLOOMINGTON    CLEAR     41  31  68 NE10      30.05R
DECATUR        CLEAR     48  30  49 N7        30.01S
PEORIA         CLEAR     51  27  39 N3        30.03R
LACON*         CLEAR     44  33  65 E13G18    30.05R
LINCOLN*       CLEAR     51  29  43 N3        30.02R
SPRINGFIELD    CLEAR     47  35  63 N6        30.02R
TAYLORVILLE    CLEAR     50  30  46 N5        30.01S
$$

ILZ033-039-045-046-055>057-062-063-230500-
EAST-CENTRAL ILLINOIS

CITY           SKY/WX    TMP DP  RH WIND       PRES   REMARKS
CHAMPAIGN      CLEAR     47  34  60 NE17G26   30.02R
RANTOUL*       CLEAR     46  33  59 NE3       30.04R
MATTOON        CLEAR     47  32  56 CALM      29.99S
PARIS*         CLEAR     50  36  58 NE8       30.01R
$$

ILZ079-100>102-230500-
SOUTHWEST ILLINOIS

CITY           SKY/WX    TMP DP  RH WIND       PRES   REMARKS
ALTON          CLEAR     49  35  60 CALM      30.02S
BELLEVILLE     CLEAR     51  37  57 N2        30.00S
CAHOKIA*       CLEAR     50  40  68 CALM      30.01S
SPARTA*        CLEAR     52  37  58 CALM      30.01S
$$

ILZ064>066-069>071-074>076-080>082-084>086-088>090-092>094-230500-
SOUTH-CENTRAL ILLINOIS

CITY           SKY/WX    TMP DP  RH WIND       PRES   REMARKS
CARBONDALE     CLEAR     49  40  71 NW6       29.99S
CAIRO*         CLEAR     56  40  54 CALM      29.99S
MARION         CLEAR     55  37  50 N3        29.99F
MT. VERNON     CLEAR     43  32  65 CALM      30.00S
CENTRALIA*       N/A     48  41  75 CALM      30.00S
SALEM*         CLEAR     51  38  60 CALM      30.00F
METROPOLIS*    CLEAR     54  39  56 CALM      29.97F
$$

ILZ067-068-072-073-078-083-087-091-230500-
SOUTHEAST ILLINOIS

CITY           SKY/WX    TMP DP  RH WIND       PRES   REMARKS
FAIRFIELD*     CLEAR     55  37  50 N3        29.99S
HARRISBURG*    CLEAR     55  37  51 N5        29.99F
ROBINSON*      CLEAR     49  40  73 N3        30.00S
CARMI*         CLEAR     50  44  80 NW5       29.98S
$$

ABBREVIATIONS USED IN REMARKS
   TC - TEMPERATURE IN CELSIUS
  WCI - WIND CHILL INDEX
   HX - HEAT INDEX
  VSB - VISIBILITY
$$




USA.gov is the U.S. government's official web portal to all federal, state and local government web resources and services.